Alamogordo, NM

11:20 AM MST on November 12, 2019 (GMT -0700)
Alamogordo-White Sands Regional

Weather History for KALM - September, 2019

Change the Weather History Date:

Friday, September 6, 2019

  Actual Average Record
Temperature  
Mean Temperature 80 °F -  
Max Temperature 93 °F 88 °F 101 °F (1983)
Min Temperature 68 °F 60 °F 48 °F (2004)
Cooling Degree Days 16    
Growing Degree Days 30 (Base 50)    
Moisture  
Dew Point 49 °F    
Average Humidity 34    
Maximum Humidity 53    
Minimum Humidity 21    
Precipitation  
Precipitation 0.00 in - - ()
Sea Level Pressure  
Sea Level Pressure 30.17 in    
Wind  
Wind Speed 5 mph ()    
Max Wind Speed 13 mph    
Max Gust Speed 16 mph    
Visibility 10.0 miles    
Events      
Averages and records for this station are not official NWS values.
T = Trace of Precipitation, MM = Missing Value Source: Averaged Metar Reports

Daily Weather History Graph

Daily Weather History Graph

Search for Another Location

Airport or City:

Astronomy

Sep. 06, 2019 Rise Set
Actual Time 6:41 AM MDT 7:22 PM MDT
Civil Twilight 6:16 AM MDT 7:47 PM MDT
Nautical Twilight 5:47 AM MDT 8:16 PM MDT
Astronomical Twilight 5:17 AM MDT 8:46 PM MDT
Moon 2:28 PM MDT (9/6) 12:04 AM MDT (9/6)
Length of Visible Light 13h 30m
Length of Day
12h 40m
First Quarter, 56% of the Moon is Illuminated
Sep 6
First Quarter
Sep 13
Full
Sep 21
Last Quarter
Sep 28
New
Oct 5
First Quarter

Hourly Weather History & Observations

Time (MDT) Temp. Dew Point Humidity Pressure Visibility Wind Dir Wind Speed Gust Speed Precip Events Conditions
12:15 AM 73.4 °F 48.2 °F 41% 30.20 in 10.0 mi Calm Calm - N/A   Clear
12:35 AM 75.2 °F 48.2 °F 38% 30.20 in 10.0 mi SSW 4.6 mph - N/A   Clear
1:15 AM 71.6 °F 50.0 °F 46% 30.19 in 10.0 mi South 8.1 mph - N/A   Clear
1:35 AM 71.6 °F 48.2 °F 43% 30.19 in 10.0 mi South 5.8 mph - N/A   Clear
1:55 AM 71.6 °F 50.0 °F 46% 30.20 in 10.0 mi SE 3.5 mph - N/A   Clear
2:15 AM 71.6 °F 48.2 °F 43% 30.20 in 10.0 mi NE 3.5 mph - N/A   Clear
2:35 AM 73.4 °F 48.2 °F 41% 30.19 in 10.0 mi North 3.5 mph - N/A   Clear
2:55 AM 73.4 °F 48.2 °F 41% 30.19 in 10.0 mi North 4.6 mph - N/A   Clear
3:15 AM 73.4 °F 48.2 °F 41% 30.19 in 10.0 mi North 3.5 mph - N/A   Clear
3:35 AM 71.6 °F 48.2 °F 43% 30.18 in 10.0 mi NNW 3.5 mph - N/A   Clear
3:55 AM 71.6 °F 48.2 °F 43% 30.18 in 10.0 mi North 4.6 mph - N/A   Clear
4:15 AM 71.6 °F 48.2 °F 43% 30.19 in 10.0 mi WNW 3.5 mph - N/A   Clear
4:35 AM 69.8 °F 48.2 °F 46% 30.19 in 10.0 mi NNW 6.9 mph - N/A   Clear
4:55 AM 71.6 °F 48.2 °F 43% 30.20 in 10.0 mi NNW 6.9 mph - N/A   Clear
5:15 AM 71.6 °F 48.2 °F 43% 30.20 in 10.0 mi North 4.6 mph - N/A   Clear
5:35 AM 71.6 °F 48.2 °F 43% 30.20 in 10.0 mi NNE 4.6 mph - N/A   Clear
5:55 AM 71.6 °F 48.2 °F 43% 30.20 in 10.0 mi NNW 5.8 mph - N/A   Clear
6:15 AM 73.4 °F 48.2 °F 41% 30.20 in 10.0 mi NNW 4.6 mph - N/A   Clear
6:35 AM 71.6 °F 48.2 °F 43% 30.21 in 10.0 mi North 3.5 mph - N/A   Clear
6:55 AM 68.0 °F 50.0 °F 52% 30.21 in 10.0 mi ENE 5.8 mph - N/A   Clear
7:15 AM 68.0 °F 50.0 °F 52% 30.21 in 10.0 mi Calm Calm - N/A   Clear
7:35 AM 68.0 °F 50.0 °F 52% 30.22 in 10.0 mi Calm Calm - N/A   Clear
7:55 AM 69.8 °F 51.8 °F 53% 30.22 in 9.0 mi Calm Calm - N/A   Clear
8:15 AM 71.6 °F 51.8 °F 50% 30.23 in 10.0 mi WNW 3.5 mph - N/A   Clear
8:35 AM 73.4 °F 50.0 °F 44% 30.23 in 10.0 mi NNW 3.5 mph - N/A   Clear
8:55 AM 73.4 °F 50.0 °F 44% 30.24 in 10.0 mi NNW 5.8 mph - N/A   Clear
9:15 AM 75.2 °F 51.8 °F 44% 30.24 in 10.0 mi North 5.8 mph - N/A   Clear
9:35 AM 75.2 °F 51.8 °F 44% 30.24 in 10.0 mi NNW 3.5 mph - N/A   Clear
9:55 AM 75.2 °F 51.8 °F 44% 30.24 in 10.0 mi NNW 4.6 mph - N/A   Clear
10:15 AM 75.2 °F 51.8 °F 44% 30.24 in 10.0 mi NNW 5.8 mph - N/A   Clear
10:35 AM 80.6 °F 51.8 °F 37% 30.24 in 10.0 mi North 5.8 mph - N/A   Clear
10:55 AM 82.4 °F 51.8 °F 35% 30.23 in 10.0 mi Calm Calm - N/A   Clear
11:15 AM 84.2 °F 51.8 °F 33% 30.23 in 10.0 mi North - - N/A   Clear
11:35 AM 86.0 °F 51.8 °F 31% 30.22 in 10.0 mi South 8.1 mph - N/A   Clear
11:55 AM 86.0 °F 51.8 °F 31% 30.22 in 10.0 mi South 4.6 mph - N/A   Clear
12:15 PM 87.8 °F 50.0 °F 27% 30.20 in 10.0 mi SSW 6.9 mph - N/A   Clear
12:35 PM 89.6 °F 51.8 °F 27% 30.19 in 10.0 mi SSW 9.2 mph - N/A   Clear
12:55 PM 89.6 °F 50.0 °F 26% 30.18 in 10.0 mi SW 8.1 mph - N/A   Clear
1:15 PM 91.4 °F 50.0 °F 24% 30.18 in 10.0 mi SSW 10.4 mph - N/A   Clear
1:35 PM 91.4 °F 50.0 °F 24% 30.17 in 10.0 mi SW 8.1 mph - N/A   Clear
1:55 PM 91.4 °F 48.2 °F 23% 30.17 in 10.0 mi SW 5.8 mph - N/A   Clear
2:15 PM 91.4 °F 50.0 °F 24% 30.16 in 10.0 mi SW 3.5 mph - N/A   Clear
2:35 PM 93.2 °F 48.2 °F 21% 30.14 in 10.0 mi SW 9.2 mph - N/A   Clear
2:55 PM 93.2 °F 48.2 °F 21% 30.14 in 10.0 mi WSW 9.2 mph - N/A   Clear
3:15 PM 93.2 °F 50.0 °F 23% 30.13 in 10.0 mi South 6.9 mph - N/A   Clear
3:35 PM 93.2 °F 48.2 °F 21% 30.12 in 10.0 mi South 8.1 mph - N/A   Scattered Clouds
3:55 PM 93.2 °F 50.0 °F 23% 30.12 in 10.0 mi South 9.2 mph - N/A   Partly Cloudy
4:15 PM 93.2 °F 48.2 °F 21% 30.11 in 10.0 mi SSW 9.2 mph - N/A   Clear
4:35 PM 93.2 °F 48.2 °F 21% 30.11 in 10.0 mi SSW 5.8 mph - N/A   Clear
4:55 PM 93.2 °F 48.2 °F 21% 30.11 in 10.0 mi WNW 3.5 mph - N/A   Clear
5:15 PM 93.2 °F 48.2 °F 21% 30.10 in 10.0 mi SSW 11.5 mph 16.1 mph N/A   Partly Cloudy
5:35 PM 93.2 °F 48.2 °F 21% 30.10 in 10.0 mi SSW 5.8 mph - N/A   Clear
5:55 PM 93.2 °F 48.2 °F 21% 30.10 in 10.0 mi SSE 6.9 mph - N/A   Clear
6:15 PM 91.4 °F 48.2 °F 23% 30.10 in 10.0 mi South 10.4 mph - N/A   Clear
6:35 PM 91.4 °F 48.2 °F 23% 30.10 in 10.0 mi South 9.2 mph - N/A   Partly Cloudy
6:55 PM 89.6 °F 48.2 °F 24% 30.10 in 10.0 mi SSE 9.2 mph - N/A   Mostly Cloudy
7:15 PM 87.8 °F 48.2 °F 25% 30.10 in 10.0 mi SSE 9.2 mph - N/A   Mostly Cloudy
7:35 PM 86.0 °F 46.4 °F 25% 30.10 in 10.0 mi SSE 9.2 mph - N/A   Partly Cloudy
7:55 PM 84.2 °F 46.4 °F 27% 30.11 in 10.0 mi SSE 10.4 mph - N/A   Clear
8:15 PM 84.2 °F 46.4 °F 27% 30.11 in 10.0 mi SSE 9.2 mph - N/A   Partly Cloudy
8:35 PM 80.6 °F 46.4 °F 30% 30.12 in 10.0 mi SSE 8.1 mph - N/A   Partly Cloudy
8:55 PM 80.6 °F 44.6 °F 28% 30.12 in 10.0 mi SE 9.2 mph - N/A   Clear
9:15 PM 80.6 °F 46.4 °F 30% 30.13 in 10.0 mi SE 8.1 mph - N/A   Clear
9:35 PM 82.4 °F 46.4 °F 28% 30.13 in 10.0 mi SE 10.4 mph - N/A   Clear
9:55 PM 84.2 °F 48.2 °F 29% 30.13 in 10.0 mi ESE 12.7 mph - N/A   Clear
10:15 PM 84.2 °F 48.2 °F 29% 30.14 in 10.0 mi SE 11.5 mph - N/A   Clear
10:35 PM 82.4 °F 48.2 °F 30% 30.14 in 10.0 mi SSE 9.2 mph - N/A   Clear
10:55 PM 82.4 °F 50.0 °F 32% 30.14 in 10.0 mi South 10.4 mph - N/A   Clear
11:15 PM 82.4 °F 50.0 °F 32% 30.15 in 10.0 mi SSE 10.4 mph - N/A   Clear
11:35 PM 80.6 °F 50.0 °F 34% 30.15 in 10.0 mi SSE 9.2 mph - N/A   Clear
11:55 PM 80.6 °F 50.0 °F 34% 30.15 in 10.0 mi South 9.2 mph - N/A   Clear